Temperature
22 22 21 20 20 20 23 24 25 25 25 25 25 24 23 22 21 20 20 20 21 20 20 20 20 20 20 19 19 19 19 19 19 19 19 19 19 19 19 19 19 19 19 19 19 19 18 18 18
23 22 21 20 20 21 23 25 25 25 25 25 24 24 23 22 21 20 20 20 21 20 20 20 20 20 19 19 19 19 19 19 19 19 19 19 19 19 19 19 19 19 19 19 19 19 18 18 18
23 22 21 20 21 22 24 25 26 26 26 26 24 24 23 22 21 20 21 21 20 20 20 20 19 19 19 19 19 19 19 19 19 19 19 19 19 19 19 19 19 19 19 19 18 18 18 18 18
23 22 21 21 23 24 25 26 26 26 26 25 24 23 22 22 21 21 21 21 20 20 20 19 19 19 19 19 19 19 19 19 19 19 19 19 19 19 19 19 19 19 19 19 18 18 18 18 18
23 22 21 22 24 25 26 27 27 26 25 24 23 22 22 22 22 21 21 21 20 20 20 19 19 19 19 19 19 19 19 19 18 19 19 19 19 18 19 19 19 19 19 19 19 18 18 18 18
23 21 21 22 25 26 27 27 26 25 25 24 23 22 21 21 21 21 21 21 20 20 20 19 19 19 19 19 19 19 19 18 18 18 18 18 18 19 18 18 18 18 18 18 18 18 18 18 18
23 21 22 23 25 26 27 27 26 25 25 24 24 22 21 21 21 21 21 20 20 20 20 19 19 19 19 19 19 19 19 18 18 18 18 18 18 18 18 18 18 18 18 18 18 18 18 18 18
25 22 23 24 25 26 27 27 27 26 25 25 24 22 21 21 21 21 20 20 20 20 19 19 19 19 19 19 19 19 19 18 18 18 18 18 18 18 18 18 18 18 18 18 18 18 18 18 18
25 22 23 24 26 26 27 27 26 26 25 25 24 23 22 21 21 21 20 20 20 19 19 19 19 19 19 19 18 18 18 18 18 18 18 18 18 18 18 18 18 18 18 18 18 18 18 18 18
25 23 24 26 26 26 27 27 26 25 24 24 23 23 22 21 21 21 20 20 19 19 19 19 19 19 18 18 18 18 18 18 18 18 18 18 18 18 18 18 18 18 18 18 18 18 18 18 18
25 25 27 28 28 28 27 27 27 25 24 24 23 22 22 21 21 20 20 20 20 19 19 19 19 18 18 18 18 18 18 18 18 18 18 18 18 18 18 18 18 18 18 18 18 18 18 18 18
27 27 28 28 29 28 27 27 26 26 25 25 24 23 22 21 21 21 20 20 19 19 19 19 19 19 19 18 18 18 18 18 18 18 18 18 18 18 18 18 18 18 18 18 18 18 18 18 18
27 27 29 29 29 28 28 27 26 25 25 24 23 23 22 21 21 21 20 20 20 19 19 19 19 19 18 18 18 18 18 18 18 18 18 18 18 18 18 18 18 18 18 18 18 18 18 18 18
27 28 28 29 29 28 27 26 26 25 24 24 23 22 22 22 21 21 20 20 20 19 19 19 19 19 19 19 18 18 18 18 18 18 18 18 18 18 18 18 18 18 18 18 18 18 18 18 18
28 27 27 28 29 28 27 26 25 25 24 23 23 22 22 22 21 21 21 20 20 20 19 19 19 19 19 19 18 18 18 18 18 18 18 18 18 18 18 18 18 18 18 18 18 18 18 18 18
26 26 26 28 28 28 27 25 25 25 24 23 23 22 22 22 21 21 21 20 20 20 19 19 19 19 19 18 18 18 18 18 18 18 18 18 18 18 18 18 18 18 18 18 18 18 18 18 18
25 25 26 27 28 28 26 25 25 25 24 23 23 22 22 22 21 21 21 21 20 20 20 19 19 19 19 18 18 18 18 18 18 18 18 18 18 18 18 18 18 18 18 18 18 18 18 18 18
25 25 26 27 28 28 26 25 25 25 24 23 23 22 22 22 22 21 21 21 20 20 20 20 19 19 19 19 18 18 18 18 18 18 18 18 18 18 18 18 18 18 18 18 18 18 18 18 18
26 26 26 27 28 27 26 25 25 25 24 23 23 22 22 22 22 21 21 21 21 20 20 20 19 19 19 19 18 18 18 18 18 18 18 18 18 18 18 18 18 18 18 18 18 18 18 18 18
27 26 26 27 28 27 25 25 25 24 24 24 23 22 23 22 22 21 21 21 21 20 20 20 19 19 19 19 19 19 18 18 18 18 18 18 18 18 18 18 18 18 18 18 18 18 18 17 18
27 26 26 26 26 26 25 24 24 24 25 24 23 23 23 22 22 21 21 21 21 20 20 20 20 19 19 19 19 19 18 18 18 18 18 18 18 18 18 18 18 18 18 18 18 18 18 18 17
26 28 28 27 25 23 24 22 23 23 23 23 23 23 22 22 22 22 21 21 21 21 20 20 20 19 19 19 19 19 19 18 18 18 18 18 18 18 18 18 18 18 18 18 18 18 18 18 18
27 28 27 27 24 23 23 22 22 22 22 22 23 23 22 22 22 22 22 21 21 21 20 20 20 19 19 19 19 19 19 18 18 18 18 18 18 18 18 18 18 18 18 18 18 18 18 18 18
28 26 25 22 21 22 22 22 21 21 22 22 23 23 22 22 22 22 22 21 21 21 20 20 20 19 19 19 19 18 18 18 18 18 18 18 18 18 18 18 18 18 18 18 18 18 17 17 17
26 23 22 22 20 21 22 22 21 23 23 23 23 22 22 22 22 22 21 21 21 20 20 20 20 19 19 19 19 18 18 18 18 18 18 18 18 18 18 18 18 18 18 18 18 18 18 18 17
26 23 22 22 21 21 22 22 22 24 24 24 23 23 22 22 22 22 22 21 21 20 20 20 20 19 19 19 19 18 18 18 18 18 18 18 18 18 18 18 18 18 18 18 18 18 17 17 17
26 24 22 21 21 21 21 22 23 23 23 23 23 23 22 22 22 21 21 21 21 21 20 20 20 19 19 19 19 18 18 18 18 18 18 18 18 18 18 18 18 18 17 17 17 17 17 17 17
27 24 21 21 21 21 21 22 21 22 22 22 22 22 22 22 21 21 21 21 21 20 20 20 19 19 19 19 19 18 18 18 18 18 18 18 18 18 18 18 17 17 17 17 17 17 17 17 17
26 25 21 19 20 20 21 21 23 22 22 21 21 22 22 21 21 21 21 21 21 20 20 20 19 19 19 19 19 18 18 18 18 18 18 18 18 18 18 17 17 17 17 17 17 17 17 17 17
26 25 22 21 21 19 20 20 23 22 22 22 22 22 22 21 21 21 20 20 20 20 20 20 20 19 19 19 18 18 18 18 18 18 18 17 17 17 17 17 17 17 17 17 17 17 17 17 17
Wind_Speed
11 8 3 1 2 3 2 2 5 5 5 7 10 10 9 6 5 5 3 7 10 9 9 13 15 16 15 15 14 14 14 14 14 14 15 15 15 15 15 16 16 17 17 16 15 15 14 14 14
8 5 1 1 3 3 1 3 7 7 9 10 10 10 8 7 6 8 5 8 10 10 10 12 15 15 15 15 14 14 14 13 14 14 14 14 14 14 14 14 15 16 16 15 14 14 14 13 13
6 3 1 2 1 3 3 4 8 8 9 7 6 6 5 6 7 6 7 12 10 9 10 13 16 15 15 15 14 13 13 13 13 13 14 14 13 13 13 14 14 15 16 15 14 14 13 12 12
3 1 2 2 1 2 5 6 8 10 8 8 8 6 4 4 6 9 12 13 11 9 10 13 15 15 15 15 14 13 12 12 12 13 13 13 12 11 12 13 13 14 15 14 13 13 12 11 10
1 3 3 1 1 2 4 8 9 9 6 8 10 7 4 4 12 15 13 12 11 8 9 12 14 15 15 14 13 12 12 12 12 12 12 12 11 10 11 12 12 13 14 13 13 13 12 11 10
2 2 2 1 2 3 4 7 10 11 10 9 10 8 4 7 12 14 13 12 10 9 8 11 13 14 14 13 13 12 12 12 11 11 11 10 10 10 10 11 12 12 13 13 13 12 12 10 9
3 2 1 2 2 3 5 6 9 9 9 7 8 7 5 6 10 12 12 11 10 9 8 8 10 12 12 12 12 11 11 11 11 10 9 9 9 10 10 10 11 12 12 12 12 12 11 10 8
4 2 1 1 3 2 5 6 7 9 7 8 7 7 7 8 10 12 11 10 9 7 6 6 8 8 9 10 11 11 11 11 11 10 9 8 8 9 10 9 10 11 11 11 11 11 11 10 9
3 2 2 3 3 3 7 8 5 7 9 6 6 7 11 14 13 12 11 9 8 7 4 5 6 6 6 7 9 10 11 11 10 9 8 7 6 7 8 9 10 10 10 11 11 11 11 10 9
4 3 6 4 5 5 6 8 6 6 9 8 11 12 14 14 12 12 11 10 8 6 4 4 4 5 5 6 7 7 8 8 8 7 7 6 6 6 7 8 9 9 9 10 10 10 10 8 6
5 5 3 3 5 7 6 5 5 10 7 10 15 16 14 14 12 11 10 9 8 7 5 4 4 4 4 3 5 4 5 6 6 6 6 6 5 5 5 5 6 6 7 6 7 8 7 5 5
2 3 3 3 4 7 6 6 6 6 8 13 17 16 14 14 12 12 10 9 8 7 6 4 3 4 3 4 4 4 4 4 4 6 7 6 3 3 3 3 4 5 5 5 5 5 6 5 5
2 2 2 4 4 5 8 7 8 8 13 16 17 16 14 13 11 9 10 9 8 7 5 5 4 4 3 3 3 3 3 4 5 5 6 6 4 3 2 3 4 4 4 4 3 4 5 4 4
3 2 1 4 5 6 10 8 7 8 14 15 14 12 12 12 11 9 9 9 8 7 6 4 4 3 3 2 2 3 4 4 4 4 5 6 5 3 2 3 3 3 4 4 4 4 4 4 3
1 2 4 1 3 5 10 6 6 12 15 14 12 11 11 10 11 11 10 9 8 7 6 5 5 3 3 2 2 3 4 4 4 4 5 6 6 4 3 3 3 3 4 4 3 3 3 3 3
4 3 2 5 3 4 8 5 6 12 15 13 12 12 10 9 10 11 10 9 8 7 6 5 5 4 3 2 2 2 3 4 4 4 5 6 6 6 3 2 2 3 3 3 3 3 3 2 2
4 1 3 5 2 4 5 5 8 10 14 13 12 11 11 9 9 9 10 10 8 8 7 5 4 4 3 2 2 3 3 3 3 4 4 5 6 6 4 2 2 3 2 2 3 3 3 3 2
4 3 3 5 2 4 5 6 10 11 13 13 12 10 10 10 10 9 10 10 9 8 7 6 5 4 3 3 3 2 3 2 2 2 3 5 5 5 4 2 2 3 3 2 2 3 3 3 3
4 4 5 7 3 2 4 6 8 10 10 11 10 10 10 10 8 8 9 9 9 7 7 6 6 5 4 2 2 2 2 1 1 1 3 5 5 5 4 3 2 3 3 3 4 3 3 2 2
4 4 5 5 1 2 3 3 6 9 12 12 13 13 12 10 8 8 8 8 8 8 8 7 7 6 5 3 3 3 3 2 2 1 1 3 4 5 5 4 3 3 3 3 3 3 3 2 2
5 4 4 3 3 5 4 2 1 3 5 7 9 10 11 13 12 10 9 8 8 8 8 8 7 6 6 5 3 2 2 2 1 1 0 0 2 3 3 3 3 3 3 3 3 3 4 3 1
5 5 3 1 3 2 2 0 4 3 3 6 8 9 10 10 10 9 9 9 9 9 8 7 7 7 6 5 5 5 4 3 2 1 1 0 1 2 3 3 3 3 2 3 2 2 3 4 2
5 3 1 1 3 3 4 2 5 0 3 6 8 9 10 10 10 11 11 10 8 8 7 7 7 6 5 5 5 5 4 3 2 1 1 1 1 1 2 3 3 3 2 2 2 2 2 2 2
3 5 7 7 6 2 3 1 4 3 6 7 7 8 9 9 10 10 9 8 6 6 6 6 7 6 5 6 5 5 5 4 3 2 1 1 0 0 1 2 2 2 2 2 2 2 2 2 2
5 6 5 6 5 3 3 1 6 7 6 8 9 9 8 8 9 9 9 9 8 7 6 6 6 5 5 5 5 5 5 5 5 4 3 2 1 1 1 1 1 1 2 2 2 2 2 2 2
3 8 7 4 3 4 3 3 6 5 3 6 8 9 8 8 8 8 9 9 9 8 7 7 7 6 5 5 5 4 5 4 3 3 3 3 2 2 1 1 1 1 2 2 2 1 2 1 2
2 2 8 7 2 1 3 3 5 3 2 4 6 7 8 8 7 7 7 8 8 8 8 8 7 6 5 5 4 4 4 4 3 3 3 2 2 2 2 2 2 1 1 1 2 1 2 1 2
4 6 6 6 4 1 3 2 4 2 0 3 4 6 6 6 6 6 5 6 7 7 7 6 7 6 5 5 4 4 3 3 3 3 3 2 2 2 2 1 1 1 1 1 1 1 1 1 2
2 3 5 5 6 6 2 5 4 5 5 5 4 4 6 7 6 6 5 5 5 5 6 6 6 5 4 4 3 3 3 2 2 3 3 2 2 2 2 2 2 2 1 2 1 2 1 1 2
4 4 6 5 3 4 4 5 4 5 5 6 6 6 6 7 7 6 5 4 4 4 5 6 6 5 5 4 4 3 2 2 2 2 2 2 2 2 2 2 2 2 1 2 2 2 2 2 2
Wind_Direction
167 161 162 163 34 45 71 87 103 84 65 69 81 89 88 73 94 125 166 131 129 138 139 137 137 134 131 127 123 121 119 120 121 121 123 125 128 130 134 139 142 143 143 142 141 142 140 137 137
163 162 178 33 55 64 68 113 97 101 121 111 86 85 81 73 92 113 121 129 130 136 137 136 137 134 132 129 126 125 123 122 123 124 126 129 130 133 139 143 146 147 146 146 147 147 144 142 141
173 180 137 50 53 137 128 126 113 107 111 105 92 67 77 110 111 121 137 132 128 130 136 140 139 135 134 132 129 128 127 125 125 128 130 132 135 139 143 147 149 149 150 152 152 150 149 147 146
164 124 48 60 96 163 147 141 120 109 92 86 100 78 64 89 118 128 132 128 127 129 134 139 140 138 137 136 133 130 128 128 130 132 133 134 136 140 143 145 152 155 156 157 157 156 156 155 155
97 78 40 12 97 110 128 125 115 107 100 95 98 96 75 78 112 123 128 127 127 131 138 140 139 140 139 138 136 135 135 136 137 136 136 137 139 143 145 147 153 159 161 162 163 162 163 163 166
67 74 51 20 66 90 109 116 102 103 112 111 105 107 103 119 120 128 130 129 129 133 136 139 141 141 142 143 142 140 140 144 144 141 140 141 142 146 149 153 155 160 163 164 165 168 169 171 174
136 110 185 151 107 102 132 117 108 119 120 121 122 105 118 131 131 130 132 128 126 127 129 136 141 143 147 149 150 147 146 150 149 147 145 148 147 149 153 155 157 162 165 169 172 175 178 180 183
158 108 298 148 131 131 125 107 111 118 114 125 118 122 147 159 138 126 123 122 122 120 128 137 141 142 148 153 154 155 155 156 157 156 153 153 152 152 157 158 163 168 172 178 182 185 186 188 190
143 86 238 199 154 138 123 105 93 90 103 104 99 124 145 142 131 120 117 115 119 118 122 133 132 137 147 156 158 161 163 165 161 161 159 152 151 156 161 166 170 173 178 184 190 193 193 196 202
142 177 223 201 160 143 130 128 132 105 102 98 100 113 128 128 125 124 129 129 131 134 134 128 131 139 147 155 156 165 167 168 166 164 164 162 159 163 165 171 174 178 182 190 197 199 201 206 216
178 197 217 152 148 133 127 125 127 129 129 142 138 137 133 128 126 127 132 136 141 146 140 136 139 146 147 145 149 160 165 166 169 170 170 168 166 172 172 177 183 186 189 196 205 209 211 211 220
189 239 189 153 139 132 143 138 119 139 151 148 142 138 134 133 135 140 139 137 138 135 135 138 136 135 145 143 149 157 161 167 175 182 177 172 170 175 179 187 193 195 199 201 207 208 211 211 214
177 256 189 169 153 142 129 124 116 122 129 131 132 133 137 138 137 138 138 136 136 131 130 135 126 128 141 134 152 148 162 173 176 177 176 176 173 174 184 190 193 198 200 195 192 196 200 203 208
226 253 244 176 158 150 125 119 106 133 132 130 133 138 142 142 140 136 136 139 141 140 142 145 135 128 126 131 141 157 173 174 169 174 176 172 174 173 167 165 172 191 198 195 189 182 187 191 181
1 11 339 199 157 148 116 98 133 144 136 135 137 139 141 145 144 148 152 151 150 151 150 153 146 134 125 134 151 160 171 166 167 180 174 167 164 167 163 152 163 185 187 173 162 161 165 161 162
11 29 323 275 180 157 115 136 154 150 145 147 149 145 148 152 153 156 157 155 152 151 152 162 151 143 138 129 146 151 161 160 172 179 174 171 170 168 161 150 171 191 181 157 145 144 143 148 154
13 319 269 292 245 147 111 152 171 164 152 155 159 155 155 158 158 159 160 160 157 156 156 158 149 151 152 130 135 137 142 151 173 180 179 177 176 174 162 160 186 187 164 155 162 145 144 153 169
266 272 283 284 294 110 120 159 163 169 163 164 163 158 160 166 171 167 163 162 159 159 158 157 152 155 146 120 102 98 102 113 147 164 187 180 181 181 170 166 168 160 141 140 143 144 141 158 169
228 261 275 275 262 107 130 142 165 169 169 167 167 167 172 175 172 167 165 161 158 161 162 163 161 164 149 136 131 128 137 152 144 169 181 180 181 180 169 163 157 147 148 161 156 144 135 150 139
239 254 271 291 323 90 114 144 172 177 184 177 174 174 175 172 170 174 169 164 163 168 171 169 171 170 167 165 165 158 157 165 166 182 175 188 183 186 179 167 165 153 146 146 151 147 138 155 143
262 220 218 239 21 40 72 9 222 194 175 175 179 178 178 175 175 177 171 172 170 173 177 176 176 172 170 164 142 123 98 66 56 60 100 195 171 165 164 163 160 150 152 155 162 161 157 167 196
257 244 194 184 78 324 79 239 281 192 179 186 190 181 177 176 173 174 173 176 179 181 179 174 173 172 171 160 149 149 147 156 187 179 161 94 131 140 150 151 149 149 150 154 167 153 160 158 186
227 227 125 91 88 30 11 95 279 197 191 198 190 179 176 175 174 177 177 176 175 173 170 171 164 167 164 156 156 153 151 160 147 132 106 96 78 121 153 155 145 145 152 161 166 147 143 158 176
149 58 36 45 64 26 295 142 277 239 203 185 181 170 170 174 173 174 173 163 161 161 162 164 160 165 165 162 160 159 160 157 146 149 159 172 144 100 136 152 142 150 154 165 181 168 158 173 171
81 85 36 11 17 263 269 149 248 250 202 170 169 172 173 169 167 165 162 165 167 164 164 161 158 160 165 163 165 165 166 167 171 181 181 176 172 203 203 172 155 168 172 165 164 161 176 189 183
183 133 148 178 205 273 311 228 257 268 211 163 162 165 164 158 158 159 163 167 169 169 170 167 168 167 170 165 168 165 162 169 181 188 182 186 191 209 199 177 176 179 184 178 159 172 202 200 206
157 157 159 136 137 149 275 286 311 347 78 126 142 146 158 155 152 155 164 166 166 167 173 175 171 167 174 175 166 163 166 172 182 186 178 178 192 195 178 181 181 191 179 174 170 194 217 199 214
149 152 94 108 137 239 290 262 237 248 95 85 137 153 155 150 152 155 159 166 172 171 168 166 165 173 177 174 172 166 171 177 179 166 171 182 196 196 178 175 174 177 167 169 182 221 235 222 239
31 74 100 116 146 154 219 272 226 187 167 146 133 141 153 157 158 161 158 154 156 157 157 160 163 160 160 168 167 163 165 168 163 171 184 192 194 183 186 192 194 191 192 199 197 236 240 238 263
154 156 139 143 197 159 163 262 257 175 154 139 129 129 132 138 136 131 123 115 121 134 153 160 162 167 167 171 155 155 155 159 170 186 199 190 193 193 190 184 195 204 197 196 200 234 250 240 250
Height
1514 1514 1513 1514 1516 1521 1521 1510 1503 1501 1502 1503 1502 1503 1506 1509 1513 1521 1518 1516 1516 1515 1514 1513 1514 1515 1516 1516 1516 1517 1517 1517 1518 1519 1520 1521 1523 1524 1526 1527 1530 1532 1534 1536 1538 1540 1542 1544 1546
1514 1514 1515 1515 1520 1530 1522 1507 1504 1502 1503 1503 1504 1506 1507 1511 1512 1514 1515 1516 1516 1515 1515 1515 1516 1517 1517 1517 1518 1518 1518 1519 1519 1520 1521 1522 1524 1525 1526 1527 1530 1532 1534 1536 1539 1541 1542 1545 1547
1514 1515 1516 1517 1523 1525 1518 1506 1503 1502 1502 1501 1505 1507 1509 1513 1514 1514 1515 1516 1517 1517 1517 1517 1517 1518 1518 1519 1519 1519 1519 1520 1521 1521 1522 1523 1524 1524 1525 1526 1529 1531 1534 1536 1539 1541 1543 1545 1547
1515 1516 1517 1521 1521 1512 1506 1503 1501 1502 1504 1504 1505 1509 1512 1514 1514 1515 1516 1517 1518 1518 1518 1518 1519 1519 1519 1519 1520 1520 1521 1521 1522 1523 1523 1523 1524 1524 1525 1526 1528 1531 1533 1536 1538 1541 1543 1545 1547
1515 1516 1520 1524 1516 1507 1501 1500 1500 1502 1504 1506 1506 1511 1514 1516 1515 1516 1517 1518 1518 1519 1519 1519 1520 1520 1520 1520 1521 1521 1522 1522 1523 1523 1524 1524 1524 1524 1525 1526 1527 1530 1533 1536 1538 1541 1543 1545 1547
1516 1517 1527 1527 1514 1505 1502 1500 1501 1503 1506 1508 1509 1512 1516 1517 1517 1518 1518 1519 1519 1519 1519 1519 1520 1520 1521 1521 1522 1522 1523 1523 1524 1524 1524 1524 1524 1524 1525 1526 1528 1530 1533 1535 1538 1541 1543 1545 1547
1517 1520 1524 1521 1515 1509 1504 1502 1502 1504 1506 1508 1509 1513 1518 1519 1519 1519 1519 1520 1520 1520 1519 1519 1520 1521 1522 1522 1523 1523 1524 1524 1525 1525 1525 1524 1524 1525 1526 1527 1528 1531 1533 1535 1538 1541 1543 1545 1547
1514 1518 1521 1518 1514 1511 1503 1503 1504 1504 1507 1509 1510 1512 1517 1519 1520 1520 1520 1521 1521 1521 1520 1520 1521 1522 1523 1523 1524 1524 1524 1525 1525 1525 1525 1525 1525 1525 1526 1527 1529 1531 1533 1535 1538 1540 1543 1545 1547
1513 1521 1524 1516 1512 1508 1503 1504 1506 1506 1507 1509 1510 1512 1515 1518 1520 1520 1521 1522 1522 1522 1522 1522 1522 1523 1523 1524 1524 1524 1525 1525 1526 1526 1526 1525 1525 1525 1526 1528 1529 1531 1533 1536 1538 1540 1543 1545 1547
1511 1521 1515 1506 1504 1504 1503 1503 1505 1508 1509 1511 1512 1515 1517 1519 1520 1521 1521 1522 1523 1523 1523 1523 1523 1524 1524 1524 1524 1524 1525 1526 1526 1526 1526 1526 1525 1526 1526 1528 1529 1531 1534 1536 1538 1540 1542 1544 1546
1508 1511 1504 1502 1501 1501 1502 1504 1505 1507 1510 1511 1512 1515 1518 1519 1520 1521 1522 1523 1523 1524 1524 1524 1524 1524 1524 1524 1524 1524 1525 1526 1526 1527 1526 1526 1526 1527 1527 1528 1529 1531 1533 1535 1537 1540 1542 1544 1546
1505 1503 1502 1501 1501 1501 1502 1504 1505 1506 1508 1510 1512 1514 1517 1519 1520 1521 1522 1524 1524 1524 1525 1525 1525 1525 1525 1525 1525 1525 1525 1526 1526 1527 1527 1527 1526 1527 1527 1528 1530 1531 1533 1535 1537 1539 1541 1543 1545
1504 1503 1502 1500 1500 1500 1501 1503 1505 1508 1510 1512 1514 1516 1518 1520 1521 1523 1524 1525 1525 1525 1525 1525 1525 1524 1525 1525 1525 1525 1526 1526 1527 1527 1527 1527 1527 1527 1528 1529 1530 1531 1533 1534 1536 1538 1540 1542 1544
1502 1501 1500 1500 1499 1500 1502 1505 1507 1511 1512 1514 1516 1518 1519 1521 1522 1524 1525 1525 1526 1526 1525 1525 1525 1525 1525 1525 1525 1525 1526 1526 1527 1527 1528 1528 1528 1528 1528 1529 1530 1531 1532 1533 1535 1536 1539 1541 1543
1501 1503 1501 1499 1498 1500 1502 1510 1509 1511 1513 1515 1518 1520 1521 1522 1523 1524 1525 1525 1526 1526 1526 1526 1525 1525 1525 1525 1525 1525 1525 1526 1527 1528 1528 1528 1529 1529 1529 1529 1530 1532 1533 1534 1535 1536 1539 1541 1542
1504 1509 1514 1502 1498 1500 1506 1519 1512 1512 1513 1515 1518 1520 1521 1522 1523 1524 1525 1526 1526 1526 1526 1526 1526 1525 1524 1524 1524 1525 1526 1526 1527 1528 1529 1529 1529 1530 1530 1530 1531 1532 1533 1534 1535 1537 1538 1540 1542
1514 1521 1517 1506 1498 1500 1506 1516 1512 1513 1513 1515 1517 1519 1520 1522 1523 1524 1525 1525 1526 1526 1526 1526 1526 1525 1525 1524 1524 1525 1526 1527 1528 1529 1530 1530 1530 1530 1530 1530 1531 1532 1533 1535 1536 1537 1538 1540 1541
1523 1520 1517 1512 1502 1502 1507 1510 1509 1512 1513 1514 1516 1518 1520 1521 1522 1523 1524 1525 1526 1526 1526 1526 1526 1526 1526 1525 1526 1527 1528 1529 1529 1530 1530 1531 1531 1531 1531 1531 1532 1533 1534 1535 1536 1537 1538 1540 1541
1510 1513 1516 1508 1500 1504 1508 1510 1510 1511 1513 1515 1516 1517 1519 1520 1522 1523 1524 1525 1525 1526 1526 1526 1526 1526 1526 1526 1527 1527 1528 1529 1530 1530 1531 1531 1531 1531 1532 1532 1532 1533 1534 1535 1536 1537 1538 1539 1540
1507 1514 1514 1507 1500 1505 1511 1512 1509 1510 1511 1511 1513 1515 1517 1519 1521 1522 1523 1524 1524 1525 1525 1526 1526 1526 1526 1527 1528 1529 1529 1530 1531 1531 1532 1532 1532 1532 1532 1532 1533 1533 1534 1535 1535 1536 1537 1539 1540
1507 1511 1511 1511 1506 1506 1512 1519 1515 1511 1511 1512 1513 1514 1515 1516 1518 1520 1522 1523 1524 1524 1525 1525 1525 1526 1526 1527 1528 1529 1530 1530 1531 1531 1532 1532 1532 1533 1533 1533 1533 1533 1534 1534 1535 1536 1537 1537 1539
1510 1498 1500 1504 1515 1525 1520 1539 1522 1514 1513 1512 1512 1513 1513 1515 1517 1518 1520 1522 1523 1523 1524 1524 1525 1525 1526 1527 1528 1528 1529 1530 1530 1531 1532 1532 1533 1533 1533 1533 1533 1533 1534 1534 1535 1536 1536 1537 1537
1499 1493 1498 1504 1515 1526 1525 1535 1530 1516 1517 1513 1511 1511 1512 1514 1515 1517 1518 1520 1521 1522 1523 1524 1524 1525 1527 1527 1528 1529 1529 1529 1531 1531 1532 1532 1532 1532 1532 1532 1532 1533 1533 1534 1534 1535 1535 1536 1536
1491 1498 1505 1513 1525 1543 1533 1536 1536 1521 1514 1511 1510 1510 1511 1513 1514 1516 1518 1519 1520 1522 1523 1523 1524 1525 1526 1527 1528 1529 1528 1529 1530 1531 1531 1531 1532 1532 1532 1532 1532 1532 1533 1533 1533 1534 1534 1534 1535
1495 1515 1537 1543 1552 1549 1530 1533 1530 1510 1504 1505 1507 1508 1509 1511 1513 1514 1516 1518 1519 1520 1521 1522 1523 1524 1525 1526 1527 1527 1528 1529 1529 1530 1530 1531 1531 1531 1531 1531 1531 1531 1532 1532 1532 1532 1532 1532 1533
1498 1511 1537 1551 1555 1547 1532 1534 1520 1504 1501 1502 1503 1506 1508 1510 1511 1512 1514 1515 1517 1518 1520 1521 1522 1523 1524 1525 1526 1526 1527 1528 1528 1529 1529 1530 1530 1530 1531 1530 1530 1530 1531 1531 1531 1531 1531 1531 1531
1498 1507 1510 1531 1539 1547 1540 1527 1514 1503 1503 1502 1504 1506 1507 1509 1510 1512 1513 1514 1515 1517 1518 1519 1521 1522 1523 1524 1525 1525 1526 1526 1527 1528 1528 1529 1529 1529 1529 1529 1529 1529 1529 1529 1530 1529 1529 1529 1529
1488 1497 1515 1530 1547 1552 1542 1534 1528 1512 1508 1505 1505 1506 1507 1508 1510 1511 1512 1513 1514 1515 1516 1518 1520 1520 1522 1523 1523 1524 1524 1525 1525 1526 1526 1527 1527 1528 1528 1527 1528 1528 1527 1528 1528 1528 1528 1528 1527
1494 1501 1512 1527 1532 1548 1551 1539 1508 1506 1504 1504 1504 1505 1506 1507 1509 1510 1511 1512 1513 1515 1515 1517 1518 1519 1520 1521 1522 1522 1523 1523 1523 1523 1524 1524 1525 1526 1526 1526 1526 1526 1526 1526 1526 1526 1526 1525 1525
1488 1496 1509 1525 1532 1535 1542 1535 1500 1500 1500 1501 1503 1504 1506 1507 1508 1510 1511 1512 1513 1514 1514 1515 1516 1517 1518 1519 1520 1521 1521 1521 1521 1521 1522 1523 1523 1523 1524 1524 1524 1524 1524 1524 1524 1523 1523 1523 1523